Back to catalog

FREGAT DEB

LostHEO
NORAD 46624·DEBRIS·🇷🇺 Russia

Launched Jul 18, 2011 from Baikonur Cosmodrome

Loading…

Next Passes (next 24 hours)

TLE

StaleSource: Space-Track

Epoch: Dec 6, 2020, 00:09 UTC

1 46624U 11037MQ  20341.00665791  .00490684  00000-0  59176+0 0  9996
2 46624  52.2229  95.3696 2587818 226.0457 109.5791  9.50043537  6867

Track FREGAT DEB in real time with AllMySat

Download on the App Store